DELTA 1 DEB, 7183

Orbit data source: Space-Track

DELTA 1 DEB, 7183 is space debris in SSO originally from a launch on Tue, 06 Nov 1973 UTC launched from the Air Force Western Test Range (AFWTR). Debris objects in space refer to the collection of defunct objects orbiting the Earth. Examples of debris include non-operational satellites, rocket bodies, and fragments generated from explosions, collisions, or faulty payload assembly.

Loading next visibility...
Identifier
7183, 1973-086EU
Orbit
SSO
Country
Flag of USUS
Related business
Manufacturer
Unknown
Mission
Spacecraft
Bus & Motor
Unknown
Mass
Unknown
Launch date (UTC)
1973-11-06 (52 years ago)
Launch vehicle
Unknown
Launch site
Air Force Western Test Range (AFWTR)
Object type
Payload
Rocket body
Debris
Shape & HBR
Unknown shape, 0.1 m
Radar Cross Section
Small (<0.1 m²)

Expand to show TLE details & history
Last TLE update: 18 hours ago

TLE from 18 hours ago
0 DELTA 1 DEB
1 07183U 73086EU  25304.01374072  .00000631  00000-0  33307-2 0  9999
2 07183 102.4025 313.7868 0126356 344.6186  40.4805 12.69925158395574
Epoch: 2025-10-31T00:19Z
TLE epoch observation values (Epoch: 2025-10-31T00:19:47.198Z)
Latitude
25.43046°
Longitude
-96.69602°
Altitude
1,310.957 km
Speed
7.238 km/s
True Right ascension
20h 31m 15s
True Declination
25° 18' 25"
Sunlit
Object was in daylight at epoch
Visualization orbit readout
Latitude
Unknown
Longitude
Unknown
Altitude
Unknown
Speed
Unknown
Apparent Right ascension
Unknown
Apparent Declination
Unknown
Sunlit
N/A
Visualization observer readout
Local Sidereal Time
14:26:21
Azimuth
Unknown
Elevation
Unknown
Doppler factor
Unknown
Orbital elements
Apogee altitude
1,477.831 km
Perigee altitude
1,281.778 km
Semi-major axis
7,757.942 km
Eccentricity
0.01264
Inclination
102.4025°
RAAN
313.7868°
Arg. of periapsis
344.6186°
True anomaly
41.43186°
Mean anomaly
40.4805°
Eccentric anomaly
40.95504°
Mean motion
3.17631 °/min
Orbital period
113.34 mins
BSTAR
0.0033307
Loading maneuver chart data...
Computing Atmospheric mass density...
Loading historical data...
Loading historical data...
Loading historical data...
Loading historical data...
Loading historical data...
Loading historical data...
Loading historical data...

Documentation

Showing up to 5 results
|